Regional Weather Roundup
Issued by NWS Upton, NY

Current Version | Previous Version | Text Only | Print | Product List | Glossary On
Versions: 1 2 3 4 5 6 7 8 9 10 11 12 13 14 15 16 17 18 19 20 21 22 23 24 25 26 27
000
ASUS41 KOKX 221005
RWROKX

Regional Weather Roundup
National Weather Service New York NY
600 AM EDT SUN APR 22 2018

Note: "FAIR" indicates few or no clouds below 12,000 feet with no
significant weather and/or obstructions to visibility.

NYZ071-072-176-178-NJZ106-104-221100-
New York City Metro Area

CITY           SKY/WX    TMP DP  RH WIND       PRES   REMARKS
Central Park   FAIR      44  17  33 CALM      30.40S
Bronx Bot Gard   N/A     43  18  36 SE3       30.38
Bronx Lehman C   N/A     46  23  39 W1          N/A
LaGuardia Arpt FAIR      47  28  47 NW3       30.38R
Queens College   N/A     46  21  36 NW5         N/A
Kennedy Intl   FAIR      44  20  38 N6        30.39S
Breezy Point     N/A     45 N/A N/A NW5         N/A
Brooklyn Coll    N/A     48  19  32 NW5         N/A
Staten Island    N/A     43  21  42 SE2         N/A
Newark/Liberty FAIR      44  18  35 N3        30.39R
Teterboro      FAIR      37  23  56 CALM      30.38R
$$

NYZ177-179-078>081-221100-
Long Island New York

CITY           SKY/WX    TMP DP  RH WIND       PRES   REMARKS
Jones Beach      N/A     45 N/A N/A N8          N/A
Wantagh          N/A     41  23  48 N6          N/A
Hempstead        N/A     43  25  49 N2        30.41
Matinecock Pt    N/A     45 N/A N/A SW3         N/A
Farmingdale    FAIR      44  19  36 N6        30.38R
MacArthur/ISP  FAIR      37  26  64 NW7       30.37R WCI  32
Stony Brook      N/A     43  28  56 NW2         N/A
Shirley        FAIR      39  25  57 N7        30.37S WCI  34
Mt Sinai Harb    N/A    N/A N/A N/A CALM        N/A
Westhampton    FAIR      31  24  75 N7        30.38R WCI  24
East Hampton   FAIR      29  25  85 MISG      30.35S
Southold         N/A     41  30  65 NW6         N/A
Montauk          N/A     44  34  67 N5        30.36R
$$

NYZ052-065-067-221100-
Hudson Valley

CITY           SKY/WX    TMP DP  RH WIND       PRES   REMARKS
White Plains   FAIR      37  18  46 NW6       30.36R WCI  32
Larchmont Harb   N/A     45 N/A N/A NW6         N/A
Croton On Huds   N/A     36 N/A N/A N2          N/A
Somers           N/A     37  18  44 NW1         N/A
Brewster         N/A     32  21  64 N1          N/A
Newburgh       CLEAR     32  25  74 CALM      30.38F
Montgomery     FAIR      29  23  78 S3        30.37R
Otisville        N/A     32  23  69 SW3         N/A
Warwick          N/A     28  25  86 SE2         N/A
Suffern          N/A     39  18  41 CALM        N/A
Poughkeepsie   FAIR      28  22  78 CALM      30.38R
Albany         FAIR      31  20  63 CALM      30.38R
$$

NJZ001-105-106-008-010-013-015-019>022-104-221100-
New Jersey

CITY           SKY/WX    TMP DP  RH WIND       PRES   REMARKS
Newark/Liberty FAIR      44  18  35 N3        30.39R
Teterboro      FAIR      37  23  56 CALM      30.38R
Caldwell       FAIR      36  24  62 CALM      30.39S
Somerville     FAIR      30  27  88 CALM      30.39R
Linden         FAIR      43  17  35 CALM      30.40R
Perth Amboy      N/A     45 N/A N/A W1          N/A
Sussex         FAIR      28  24  85 CALM      30.39R
Andover          N/A     31  26  82 CALM      30.39R
Trenton        FAIR      40  21  46 NW6       30.40R
Millville      FAIR      33  31  92 CALM      30.41R
Atlantic City  FAIR      38  34  85 W5        30.41R WCI  34
Wrightstown    FAIR      36  24  62 N3        30.38
Toms River     FAIR      28  24  85 CALM      30.41R
Belmar         FAIR      34  23  64 W3        30.41R
$$

PAZ047>061-062-071-221100-
Eastern Pennsylvania

CITY           SKY/WX    TMP DP  RH WIND       PRES   REMARKS
Philadelphia   FAIR      44  25  47 CALM      30.42R
Allentown      FAIR      34  26  72 W6        30.41R WCI  29
Scranton       FAIR      30  20  66 E3        30.40R
$$

CTZ002-004>006-009-010-012-RIZ004-006-007-MAZ004-011-015-221100-
Southern New England

 In CT

CITY           SKY/WX    TMP DP  RH WIND       PRES   REMARKS
Bradley Intl   FAIR      35  22  58 CALM      30.36R
Hartford       FAIR      34  29  82 CALM      30.37R
Danbury        FAIR      29  24  82 CALM      30.38R
Wtrbury/Oxford FAIR      35  19  52 N5        30.36R WCI  31
Norwalk Harbor   N/A     41 N/A N/A NW6         N/A
Bridgeport     FAIR      42  19  39 NW6       30.37S
Meriden        FAIR      33  25  72 CALM      30.37R
New Haven      FAIR      35  23  61 N5        30.37R WCI  31
Chester        FAIR      39  19  45 CALM      30.35R
Groton         FAIR      34  25  69 CALM      30.35R
Willimantic    FAIR      30  25  81 CALM      30.36R

 In RI

CITY           SKY/WX    TMP DP  RH WIND       PRES   REMARKS
Providence     FAIR      37  25  61 W5        30.34S WCI  33
Block Island   FAIR      41  28  60 NW6       30.35R
Westerly       FAIR      32  26  78 CALM      30.35S

In MA

CITY           SKY/WX    TMP DP  RH WIND       PRES   REMARKS
Boston         FAIR      43  21  41 W10       30.33R
Worcester      FAIR      35  17  47 W10       30.32R WCI  27
Westfield      FAIR      28  23  81 CALM      30.36R
Provincetown   FAIR      41  34  76 W6        30.32R
Nantucket      FAIR      38  36  92 NW7       30.31R WCI  33
$$

ANZ330-335-338-340-345-350-353-355-221100-
Coastal Marine Observations


STATION/POSITION TIME  SKY/WX   TEMP    WIND        PRES    VSBY  WAVE
                                AIR SEA DIR/SP/G                  HT/PER
                 (UTC)          (F)     (DEG/KT/KT) (MB)    (MI)  (FT/S)
NY Harb Entrance 0950            47 45  330/  6/  8 1029.2          1/ 5
20 S Fire Island 0950            45 43  330/  8/  8 1028.6          2/ 5
23 SSW Montauk P 0950            44 42  330/  8/ 10 1027.8          2/ 5
15 E Barnegat Li 0930               44                N/A           2/ 5
Hudson Canyon    0950            46 44  340/  8/ 10 1027.7          2/ 5
Kings Point      0948            44 45     CALM     1029.8
Execution Rocks  NOT AVBL
Western LI Sound NOT AVBL
Central LI Sound 0945            44     320/  6/ 10   N/A           0
Robbins Reef     0948            46     330/  3/  4 1029.5
$$


>>>>>>>>>>>>>>>>>>>>>>>>>>>> KEY <<<<<<<<<<<<<<<<<<<<<<<<<<<
>                                                          <
>     SKY/WX - Sky Condition/Present Weather               <
>     TMP    - Temperature in Fahrenheit                   <
>     DP     - Dew Point in Fahrenheit                     <
>     RH     - Relative Humidity in Percent                <
>     WIND   - Direction (from) and Speed in MPH           <
>     PRES   - Mean Sea Level Pressure (inches of Hg)      <
>     WCI    - Wind Chill Index                            <
>     VSB    - Visibility in Miles                         <
>     HX     - Heat Index                                  <
>     TC     - Temperature in Celsius                      <
>     VRB    - Varibale Wind Direction                     <
>                                                          <
>>>>>>>>>>>>>>>>>>>>>>>>>>>> KEY <<<<<<<<<<<<<<<<<<<<<<<<<<<




USA.gov is the U.S. government's official web portal to all federal, state and local government web resources and services.